Showing default

LEMUR-2 CARROLLEMO, 68489

Orbit data source: Space-Track

LEMUR-2 CARROLLEMO, 68489 is a payload satellite owned by Spire (DE) in SSO that was launched on Mon, 30 Mar 2026 UTC via an FALCON 9 launch vehicle from the Air Force Western Test Range (AFWTR). Payload-class satellites include a variety of spacecraft equipped with specific instruments for various scientific and technological missions. These include communications satellites like Starlink; space stations such as the ISS; scientific satellites like the Hubble; Earth observation satellites from companies like Planet Labs, Umbra, and HawkEye 360; GPS; miniature CubeSats for education and research; and military/defense satellites.

Loading next visibility...
Identifier
68489, 2026-067CB
Orbit
SSO
Country
Flag of DEDE / GER
Related business
Manufacturer
Spire/Glasgow
Mission
Operational Commercial Com/MetRO
Bus & Motor
CUBESAT 3U, Unknown motor
Mass
7.6 kg wet, 7.6 kg dry
Launch date (UTC)
2026-03-30 (6 months ago)
Launch vehicle
FALCON 9
Launch site
Air Force Western Test Range (AFWTR)
Object type
Payload
Rocket body
Debris
Shape & HBR
Box + 2 Pan, 0.5 m
Radar Cross Section
0.063 m², Medium (>0.1 m² and < 1m²)

Expand to show TLE details & history
Last TLE update: 19 hours ago

TLE from 19 hours ago
0 LEMUR-2 CARROLLEMO
1 68489U 26067CB  26262.63514149  .00002350  00000-0  23660-3 0  9997
2 68489  97.7634 219.3174 0003746 100.2327 259.9314 14.92119981 25808
Epoch: 2026-09-19T15:14Z
TLE epoch observation values (Epoch: 2026-09-19T15:14:36.224Z)
Latitude
-0.00009°
Longitude
-7.87437°
Altitude
594.826 km
Speed
7.562 km/s
True Right ascension
14h 37m 16s
True Declination
0° 00' 00"
Sunlit
Object was in daylight at epoch
Visualization orbit readout
Latitude
Unknown
Longitude
Unknown
Altitude
Unknown
Speed
Unknown
Apparent Right ascension
Unknown
Apparent Declination
Unknown
Sunlit
N/A
Visualization observer readout
Local Sidereal Time
03:11:26
Azimuth
Unknown
Elevation
Unknown
Doppler factor
Unknown
Orbital elements
Apogee altitude
590.955 km
Perigee altitude
585.735 km
Semi-major axis
6,966.482 km
Eccentricity
0.00037
Inclination
97.7634°
RAAN
219.3174°
Arg. of periapsis
100.2327°
True anomaly
259.88914°
Mean anomaly
259.9314°
Eccentric anomaly
259.91027°
Mean motion
3.7327 °/min
Orbital period
96.44 mins
BSTAR
0.0002366
Loading maneuver chart data...
Computing Atmospheric mass density...
Loading historical data...
Loading historical data...
Loading historical data...
Loading historical data...
Loading historical data...
Loading historical data...
Loading historical data...

Documentation

Showing up to 5 results
|